Home   Weather   Darlinghurst   Past weeks
Flag for Australia

Past Weather in Darlinghurst, New South Wales, Australia — Yesterday and Last 2 Weeks

Now
65 °F

Mild.


Feels Like: 65 °F
Forecast: 77 / 67 °F
Wind: N/A

Location: Sydney Regional Office

Current Time: Apr 21, 2019 at 6:29:01 am

Latest Report: Apr 21, 2019 at 6:00 am


Visibility: N/A

Pressure: 30.23 "Hg

Humidity: 88%

Dew Point: 61 °F

Location of DarlinghurstLocation

Past Weather in Darlinghurst — Graph

°F

Darlinghurst Temperature Yesterday

Maximum temperature yesterday: 75 °F (at 12:00 pm)
Minimum temperature yesterday: 62 °F (at 6:00 am)
Average temperature yesterday: 69 °F

High & Low Weather Summary for the Past Weeks

 TemperatureHumidityPressure
High88 °F (Apr 8, 2:00 pm)88% (Apr 6, 6:00 am)30.40 "Hg (Apr 6, 6:00 am)
Low54 °F (Apr 11, 6:00 am)19% (Apr 8, 5:00 pm)29.82 "Hg (Apr 9, 5:00 am)
Average68 °F67%30.19 "Hg
* Reported Apr 6 6:00 am — Apr 21 5:00 am, Darlinghurst. Weather by CustomWeather, © 2019

Note: Actual official high and low records may vary slightly from our data, if they occured in-between our weather recording intervals... More about our weather records

Advertising

Darlinghurst Weather History for the Previous 24 Hours

Scroll right to see more
 ConditionsComfort  
Time TempWeatherWind HumidityBarometerVisibility
5:00 am
Sun, Apr 21
65 °FMild.N/A88%30.23 "HgN/A
3:00 am67 °FMild.N/A86%30.21 "HgN/A
2:00 am67 °FMild.N/A85%30.22 "HgN/A
12:00 am71 °FMild.N/A78%30.25 "HgN/A
11:00 pm
Sat, Apr 20
71 °FMild.N/A80%30.26 "HgN/A
9:00 pm71 °FMild.N/A79%30.27 "HgN/A
8:00 pm71 °FMild.N/A77%30.26 "HgN/A
6:00 pm72 °FMild.N/A77%30.24 "HgN/A
5:00 pm72 °FMild.N/A76%30.24 "HgN/A
3:00 pm75 °FMild.N/A67%30.24 "HgN/A
2:00 pm75 °FMild.N/A65%30.25 "HgN/A
12:00 pm75 °FMild.N/A66%30.29 "HgN/A
11:00 am73 °FMild.N/A70%30.32 "HgN/A
9:00 am67 °FMild.N/A80%30.33 "HgN/A
8:00 am66 °FMild.N/A81%30.33 "HgN/A
6:00 am62 °FMild.N/A88%30.31 "HgN/A
Weather by CustomWeather, © 2019

See weather overview